When you browse on this site, cookies collect data to enhance your experience and personalize the content and advertising you see.
Visit our Privacy Policy to learn more. By continuing to use the site, you agree to this use of cookies and data.
  • In Norway
  • List of Countries
  • For 7 days
  • Water Temperature
  • Satellite Maps
  • Weather Map
  • Weather Widgets
  • user-avatar
    Login

    Hourly Weather Eisenstadt

    Today, 21 January, Monday

    Time Temperature Precipitation Wind Pressure Humidity
    00:00 -4°C° 0 mm 1 mps 723 mmHg 72%
    01:00 -4°C° 0 mm 1 mps 723 mmHg 71%
    02:00 -4°C° 0 mm 1 mps 723 mmHg 71%
    03:00 -4°C° 0 mm 1 mps 723 mmHg 70%
    04:00 -4°C° 0 mm 1 mps 723 mmHg 70%
    05:00 -4°C° 0 mm 1 mps 724 mmHg 70%
    06:00 -4°C° 0 mm 1 mps 724 mmHg 70%
    07:00 -4°C° 0 mm 1 mps 724 mmHg 70%
    08:00 -3°C° 0 mm 1 mps 724 mmHg 66%
    09:00 -2°C° 0 mm 1 mps 724 mmHg 61%
    10:00 -1°C° 0 mm 1 mps 725 mmHg 57%
    11:00 -1°C° 0 mm 1 mps 724 mmHg 54%
    12:00 0°C° 0 mm 1 mps 724 mmHg 50%
    13:00 +1°C° 0 mm 1 mps 724 mmHg 47%
    14:00 0°C° 0 mm 1 mps 724 mmHg 50%
    15:00 0°C° 0 mm 1 mps 724 mmHg 53%
    16:00 -1°C° 0 mm 1 mps 723 mmHg 56%
    17:00 -2°C° 0 mm 1 mps 723 mmHg 58%
    18:00 -4°C° 0 mm 0 mps 723 mmHg 60%
    19:00 -4°C° 0 mm 0 mps 723 mmHg 62%
    20:00 -4°C° 0 mm 0 mps 723 mmHg 63%
    21:00 -4°C° 0 mm 0 mps 723 mmHg 63%
    22:00 -4°C° 0 mm 0 mps 723 mmHg 64%
    23:00 -4°C° 0 mm 0 mps 723 mmHg 64%

    Tomorrow, 22 January, Tuesday

    Time Temperature Precipitation Wind Pressure Humidity
    00:00 -4°C° 0 mm 0 mps 723 mmHg 65%
    01:00 -4°C° 0 mm 0 mps 723 mmHg 65%
    02:00 -5°C° 0 mm 0 mps 722 mmHg 66%
    03:00 -5°C° 0 mm 0 mps 722 mmHg 67%
    04:00 -5°C° 0 mm 0 mps 721 mmHg 68%
    05:00 -5°C° 0 mm 0 mps 721 mmHg 69%
    06:00 -5°C° 0 mm 0 mps 721 mmHg 70%
    07:00 -4°C° 0 mm 1 mps 720 mmHg 71%
    08:00 -4°C° 0 mm 0 mps 720 mmHg 67%
    09:00 -3°C° 0 mm 0 mps 720 mmHg 64%
    10:00 -2°C° 0 mm 0 mps 720 mmHg 60%
    11:00 -1°C° 0 mm 1 mps 719 mmHg 59%
    12:00 0°C° 0 mm 1 mps 718 mmHg 57%
    13:00 -1°C° 0 mm 2 mps 717 mmHg 55%
    14:00 0°C° 0 mm 1 mps 717 mmHg 58%
    15:00 0°C° 0 mm 1 mps 716 mmHg 60%
    16:00 -1°C° 0 mm 1 mps 715 mmHg 62%
    17:00 -1°C° 0 mm 1 mps 715 mmHg 65%
    18:00 -2°C° 0 mm 1 mps 715 mmHg 67%
    19:00 -3°C° 0 mm 1 mps 714 mmHg 69%
    20:00 -3°C° 0 mm 1 mps 714 mmHg 72%
    21:00 -3°C° 0 mm 1 mps 713 mmHg 75%
    22:00 -4°C° 0 mm 0 mps 713 mmHg 78%
    23:00 -2°C° 0.1 mm 1 mps 712 mmHg 81%

    Day after tomorrow, 23 January, Wednesday

    Time Temperature Precipitation Wind Pressure Humidity
    00:00 -2°C° 0.1 mm 1 mps 712 mmHg 84%
    01:00 -2°C° 0.1 mm 1 mps 711 mmHg 87%
    02:00 -2°C° 0.1 mm 1 mps 711 mmHg 89%
    03:00 -2°C° 0.1 mm 1 mps 710 mmHg 90%
    04:00 -2°C° 0.1 mm 1 mps 710 mmHg 92%
    05:00 -2°C° 0.1 mm 1 mps 710 mmHg 92%
    06:00 -2°C° 0.1 mm 1 mps 709 mmHg 92%
    07:00 -3°C° 0.1 mm 1 mps 709 mmHg 93%
    08:00 -2°C° 0.2 mm 1 mps 709 mmHg 91%
    09:00 -2°C° 0.2 mm 1 mps 709 mmHg 89%
    10:00 -1°C° 0.2 mm 1 mps 710 mmHg 88%
    11:00 -1°C° 0.4 mm 1 mps 710 mmHg 87%
    12:00 0°C° 0.4 mm 1 mps 710 mmHg 87%
    13:00 0°C° 0.4 mm 1 mps 709 mmHg 87%
    14:00 0°C° 0.3 mm 1 mps 710 mmHg 89%
    15:00 -1°C° 0.3 mm 1 mps 710 mmHg 91%
    16:00 -1°C° 0.3 mm 1 mps 710 mmHg 93%
    17:00 -1°C° 0.1 mm 1 mps 710 mmHg 94%
    18:00 -1°C° 0.1 mm 1 mps 711 mmHg 95%
    19:00 -2°C° 0.1 mm 1 mps 711 mmHg 97%
    20:00 -3°C° 0 mm 0 mps 712 mmHg 96%
    21:00 -3°C° 0 mm 0 mps 712 mmHg 95%
    22:00 -3°C° 0 mm 0 mps 713 mmHg 94%
    23:00 -3°C° 0 mm 0 mps 713 mmHg 95%

    24 January, Thursday

    Time Temperature Precipitation Wind Pressure Humidity
    00:00 -2°C° 0 mm 1 mps 713 mmHg 95%
    01:00 -3°C° 0 mm 1 mps 714 mmHg 95%
    02:00 -3°C° 0 mm 1 mps 714 mmHg 95%
    03:00 -3°C° 0 mm 1 mps 714 mmHg 94%
    04:00 -2°C° 0 mm 1 mps 714 mmHg 93%
    05:00 -2°C° 0 mm 1 mps 715 mmHg 92%
    06:00 -2°C° 0 mm 1 mps 715 mmHg 91%
    07:00 -4°C° 0 mm 2 mps 716 mmHg 91%
    08:00 -4°C° 0 mm 2 mps 716 mmHg 88%
    09:00 -3°C° 0 mm 2 mps 717 mmHg 85%
    10:00 -2°C° 0 mm 3 mps 717 mmHg 83%
    11:00 -2°C° 0 mm 3 mps 717 mmHg 82%
    12:00 -1°C° 0 mm 3 mps 717 mmHg 81%
    13:00 -1°C° 0 mm 3 mps 717 mmHg 80%
    14:00 -1°C° 0 mm 3 mps 717 mmHg 82%
    15:00 -2°C° 0 mm 3 mps 717 mmHg 83%
    16:00 -2°C° 0 mm 3 mps 717 mmHg 84%
    17:00 -2°C° 0 mm 3 mps 718 mmHg 85%
    18:00 -4°C° 0 mm 4 mps 718 mmHg 86%
    19:00 -4°C° 0 mm 4 mps 719 mmHg 87%
    20:00 -4°C° 0 mm 4 mps 719 mmHg 87%
    21:00 -4°C° 0 mm 4 mps 719 mmHg 87%
    22:00 -4°C° 0 mm 4 mps 720 mmHg 87%
    23:00 -4°C° 0 mm 4 mps 720 mmHg 85%

    25 January, Friday

    Time Temperature Precipitation Wind Pressure Humidity
    00:00 -5°C° 0 mm 5 mps 720 mmHg 83%
    01:00 -5°C° 0 mm 5 mps 720 mmHg 81%
    02:00 -5°C° 0 mm 5 mps 720 mmHg 82%
    03:00 -5°C° 0 mm 5 mps 720 mmHg 83%
    04:00 -6°C° 0 mm 5 mps 719 mmHg 84%
    05:00 -5°C° 0 mm 5 mps 720 mmHg 83%
    06:00 -5°C° 0 mm 5 mps 720 mmHg 81%
    07:00 -5°C° 0 mm 6 mps 720 mmHg 80%
    08:00 -5°C° 0 mm 6 mps 721 mmHg 76%
    09:00 -4°C° 0 mm 6 mps 721 mmHg 72%
    10:00 -3°C° 0 mm 6 mps 721 mmHg 68%
    11:00 -3°C° 0 mm 6 mps 721 mmHg 65%
    12:00 -2°C° 0 mm 6 mps 721 mmHg 62%
    13:00 -2°C° 0 mm 6 mps 721 mmHg 59%
    14:00 -1°C° 0 mm 5 mps 721 mmHg 62%
    15:00 -2°C° 0 mm 5 mps 720 mmHg 64%
    16:00 -2°C° 0 mm 4 mps 720 mmHg 67%
    17:00 -3°C° 0 mm 4 mps 720 mmHg 69%
    18:00 -4°C° 0 mm 3 mps 721 mmHg 72%
    19:00 -5°C° 0 mm 3 mps 721 mmHg 75%
    20:00 -5°C° 0 mm 3 mps 721 mmHg 74%
    21:00 -5°C° 0 mm 3 mps 721 mmHg 73%
    22:00 -4°C° 0 mm 2 mps 721 mmHg 72%
    23:00 -4°C° 0 mm 2 mps 721 mmHg 72%

    26 January, Saturday

    Time Temperature Precipitation Wind Pressure Humidity
    00:00 -5°C° 0 mm 2 mps 721 mmHg 72%
    01:00 -5°C° 0 mm 2 mps 721 mmHg 72%
    02:00 -5°C° 0 mm 2 mps 720 mmHg 72%
    03:00 -3°C° 0 mm 1 mps 720 mmHg 72%
    04:00 -3°C° 0 mm 1 mps 720 mmHg 73%
    05:00 -3°C° 0 mm 1 mps 719 mmHg 72%
    06:00 -2°C° 0 mm 1 mps 719 mmHg 71%
    07:00 -2°C° 0 mm 1 mps 719 mmHg 70%
    08:00 -1°C° 0 mm 1 mps 719 mmHg 69%
    09:00 0°C° 0 mm 1 mps 719 mmHg 69%
    10:00 +1°C° 0 mm 1 mps 719 mmHg 68%
    11:00 +2°C° 0 mm 1 mps 719 mmHg 68%
    12:00 +3°C° 0 mm 1 mps 718 mmHg 68%
    13:00 +3°C° 0 mm 1 mps 718 mmHg 69%
    14:00 +3°C° 0 mm 1 mps 718 mmHg 72%
    15:00 +2°C° 0 mm 1 mps 717 mmHg 76%
    16:00 +2°C° 0 mm 1 mps 717 mmHg 80%
    17:00 +1°C° 0 mm 1 mps 717 mmHg 81%
    18:00 +1°C° 0 mm 1 mps 716 mmHg 83%
    19:00 0°C° 0 mm 1 mps 716 mmHg 84%
    20:00 -2°C° 0 mm 2 mps 716 mmHg 84%
    21:00 -2°C° 0 mm 2 mps 715 mmHg 83%
    22:00 -2°C° 0 mm 2 mps 715 mmHg 82%
    23:00 -2°C° 0 mm 2 mps 714 mmHg 81%
    Show more